Junction, TX

11:30 PM CST on February 20, 2017 (GMT -0600)
Kimble County

Weather History for KJCT - September, 2013

Change the Weather History Date:

Sunday, September 22, 2013

  Actual Average Record
Temperature  
Mean Temperature 66 °F -  
Max Temperature 82 °F 84 °F 99 °F (2005)
Min Temperature 50 °F 59 °F 50 °F (2013)
Cooling Degree Days 1    
Growing Degree Days 16 (Base 50)    
Moisture  
Dew Point 45 °F    
Average Humidity 52    
Maximum Humidity 97    
Minimum Humidity 18    
Precipitation  
Precipitation 0.00 in - - ()
Sea Level Pressure  
Sea Level Pressure 29.83 in    
Wind  
Wind Speed 1 mph (NE)    
Max Wind Speed 9 mph    
Max Gust Speed -    
Visibility 10 miles    
Events      
Averages and records for this station are not official NWS values.
T = Trace of Precipitation, MM = Missing Value Source: NWS Daily Summary

Daily Weather History Graph

Daily Weather History Graph

Search for Another Location

Airport or City:

Trip Planner

Search our weather history database for the weather conditions in past years. The results will help you decide how hot, cold, wet, or windy it might be!

Date:

Astronomy

Sep. 22, 2013 Rise Set
Actual Time 7:27 AM CDT 7:35 PM CDT
Civil Twilight 7:03 AM CDT 7:59 PM CDT
Nautical Twilight 6:35 AM CDT 8:27 PM CDT
Astronomical Twilight 6:07 AM CDT 8:55 PM CDT
Moon 9:43 PM CDT (9/22) 10:33 AM CDT (9/22)
Length of Visible Light 12h 55m
Length of Day
12h 07m
Waning Gibbous, 88% of the Moon is Illuminated
Sep 22
Waning Gibbous
Sep 26
Last Quarter
Oct 4
New
Oct 11
First Quarter
Oct 18
Full

Hourly Weather History & Observations

Time (CDT) Temp. Dew Point Humidity Pressure Visibility Wind Dir Wind Speed Gust Speed Precip Events Conditions
12:51 AM 57.9 °F 55.9 °F 93% 29.88 in 10.0 mi Calm Calm - N/A   Clear
1:51 AM 55.9 °F 55.0 °F 97% 29.87 in 10.0 mi West 3.5 mph - N/A   Clear
2:51 AM 55.0 °F 32.0 °F 42% 29.86 in 10.0 mi Calm Calm - N/A   Clear
3:51 AM 53.1 °F 30.9 °F 43% 29.85 in 10.0 mi Calm Calm - N/A   Clear
4:51 AM 52.0 °F 50.0 °F 93% 29.84 in 10.0 mi Calm Calm - N/A   Clear
5:51 AM 51.1 °F 46.0 °F 83% 29.85 in 9.0 mi Calm Calm - N/A   Clear
6:51 AM 50.0 °F 33.1 °F 52% 29.86 in 10.0 mi Calm Calm - N/A   Clear
7:51 AM 50.0 °F 37.9 °F 63% 29.87 in 7.0 mi Calm Calm - N/A   Clear
8:51 AM 55.0 °F 41.0 °F 59% 29.88 in 9.0 mi Calm Calm - N/A   Clear
9:51 AM 62.1 °F 46.0 °F 56% 29.88 in 9.0 mi Calm Calm - N/A   Clear
10:51 AM 68.0 °F 46.0 °F 45% 29.88 in 10.0 mi Calm Calm - N/A   Clear
11:51 AM 73.0 °F 48.0 °F 41% 29.87 in 10.0 mi Variable 4.6 mph - N/A   Clear
12:51 PM 75.9 °F 45.0 °F 33% 29.86 in 10.0 mi Calm Calm - N/A   Clear
1:51 PM 79.0 °F 44.1 °F 29% 29.83 in 10.0 mi NE 5.8 mph - N/A   Clear
2:51 PM 80.1 °F 34.0 °F 19% 29.80 in 10.0 mi East 9.2 mph - N/A   Clear
3:51 PM 81.0 °F 39.9 °F 23% 29.78 in 10.0 mi Calm Calm - N/A   Clear
4:51 PM 81.0 °F 39.0 °F 22% 29.76 in 10.0 mi Calm Calm - N/A   Clear
5:51 PM 81.0 °F 41.0 °F 24% 29.75 in 10.0 mi ENE 5.8 mph - N/A   Clear
6:51 PM 80.1 °F 44.1 °F 28% 29.75 in 10.0 mi ENE 3.5 mph - N/A   Clear
7:51 PM 71.1 °F 50.0 °F 47% 29.75 in 10.0 mi NNE 5.8 mph - N/A   Clear
8:51 PM 66.9 °F 52.0 °F 59% 29.76 in 10.0 mi NE 4.6 mph - N/A   Clear
9:51 PM 63.0 °F 54.0 °F 72% 29.77 in 10.0 mi WNW 3.5 mph - N/A   Clear
10:51 PM 60.1 °F 54.0 °F 80% 29.78 in 10.0 mi Calm Calm - N/A   Clear
11:51 PM 57.9 °F 54.0 °F 87% 29.79 in 10.0 mi Calm Calm - N/A   Clear